Location: LDNL
(36.4545°S, 141.6685°E)
Time: 23:44:14
(UTC+10:00)

Envisat - Pass Details

Date: 26 June 2022
Orbit: 763 x 765 km, 98.2° (Epoch: 16 August)

Event Time Altitude Azimuth Distance (km) Brightness Sun altitude
Rises 18:03:46 0° 182° (S) 3,265 6.0 -7.6°
Reaches altitude 10° 18:06:28 10° 195° (SSW) 2,331 5.4 -8.0°
Maximum altitude 18:10:32 24° 248° (WSW) 1,553 5.2 -8.8°
Drops below altitude 10° 18:14:34 10° 300° (WNW) 2,309 7.1 -9.6°
Sets 18:17:14 0° 313° (NW) 3,227 7.7 -10.0°
